This is the latest recevied weather packets stored in our database for station/object N7WSS. If no packets are shown the sender has not sent any weather packets the latest 10 day(s).
| Time | Temp. | Humidity | Pressure | Rain* | Wind** | Luminosity | Snow |
|---|---|---|---|---|---|---|---|
| 1787963153 | 38.89° C | 24% | 1011.2 hPa | 0 mm | - | - | - |
| 1787962851 | 38.89° C | 25% | 1011.1 hPa | 0 mm | - | - | - |
| 1787962550 | 39.44° C | 24% | 1011.1 hPa | 0 mm | - | - | - |
| 1787962249 | 39.44° C | 24% | 1010.9 hPa | 0 mm | - | - | - |
| 1787961944 | 39.44° C | 24% | 1011.1 hPa | 0 mm | - | - | - |
| 1787961640 | 39.44° C | 24% | 1010.9 hPa | 0 mm | - | - | - |
| 1787961332 | 40° C | 24% | 1010.9 hPa | 0 mm | - | - | - |
| 1787961027 | 39.44° C | 24% | 1010.7 hPa | 0 mm | - | - | - |
| 1787960721 | 40° C | 24% | 1010.7 hPa | 0 mm | - | - | - |
| 1787960421 | 40° C | 24% | 1010.7 hPa | 0 mm | - | - | - |
| 1787960115 | 40° C | 24% | 1010.9 hPa | 0 mm | - | - | - |
| 1787959810 | 39.44° C | 24% | 1010.9 hPa | 0 mm | - | - | - |
| 1787959506 | 40° C | 24% | 1010.8 hPa | 0 mm | - | - | - |
| 1787959200 | 40° C | 24% | 1010.7 hPa | 0 mm | - | - | - |
| 1787958895 | 40.56° C | 24% | 1011.1 hPa | 0 mm | - | - | - |
| 1787958595 | 40.56° C | 24% | 1010.8 hPa | 0 mm | - | - | - |
| 1787958291 | 41.11° C | 24% | 1010.9 hPa | 0 mm | - | - | - |
| 1787957990 | 41.11° C | 24% | 1010.9 hPa | 0 mm | - | - | - |
| 1787957690 | 40.56° C | 23% | 1011.1 hPa | 0 mm | - | - | - |
| 1787957385 | 40° C | 24% | 1011.3 hPa | 0 mm | - | - | - |
| 1787957084 | 40° C | 23% | 1010.9 hPa | 0 mm | - | - | - |
| 1787956779 | 40.56° C | 23% | 1011.1 hPa | 0 mm | - | - | - |
| 1787956474 | 40.56° C | 23% | 1011.2 hPa | 0 mm | - | - | - |
| 1787956169 | 40.56° C | 23% | 1011.2 hPa | 0 mm | - | - | - |
| 1787955869 | 39.44° C | 24% | 1011.2 hPa | 0 mm | - | - | - |
* Rain latest hour (hover to see other rain measurements)
** Current wind speed in m/s (hover to see current wind gust speed)